FENGYUN 1C DEB, 30931

Orbit data source: Space-Track

FENGYUN 1C DEB, 30931 is space debris in SSO originally from a launch on Mon, 10 May 1999 UTC launched from the Taiyaun Space Center, China (TSC). Fengyun 1C debris stems from the Chinese weather satellite Fengyun-1C, which was intentionally destroyed by a Chinese anti-satellite missile in 2007. This event dramatically increased the amount of space debris, with thousands of trackable fragments posing hazards to satellites and human spaceflight. The Fengyun 1C debris cloud has become a focal point in discussions about space sustainability and the need for international regulations to prevent the creation of new debris.

Loading next visibility...
Identifier
30931, 1999-025AZV
Orbit
SSO
Country
Flag of CNCN / PRC
Related business
Manufacturer
Unknown
Mission
Spacecraft
Bus & Motor
Unknown
Mass
Unknown
Launch date (UTC)
1999-05-10 (27 years ago)
Launch vehicle
Unknown
Launch site
Taiyaun Space Center, China (TSC)
Object type
Payload
Rocket body
Debris
Shape & HBR
Unknown shape, 0.1 m
Radar Cross Section
Small (<0.1 m²)

Expand to show TLE details & history
Last TLE update: 18 hours ago

TLE from 18 hours ago
0 FENGYUN 1C DEB
1 30931U 99025AZV 25353.14187638  .00000645  00000-0  43949-3 0  9994
2 30931  99.1718  50.7072 0092953  23.8345   3.8549 14.01523416960154
Epoch: 2025-12-19T03:24Z
TLE epoch observation values (Epoch: 2025-12-19T03:24:18.119Z)
Latitude
27.41816°
Longitude
-93.13461°
Altitude
824.439 km
Speed
7.478 km/s
True Right ascension
03h 03m 42s
True Declination
27° 16' 45"
Sunlit
Object was in full shadow at epoch
Visualization orbit readout
Latitude
Unknown
Longitude
Unknown
Altitude
Unknown
Speed
Unknown
Apparent Right ascension
Unknown
Apparent Declination
Unknown
Sunlit
N/A
Visualization observer readout
Local Sidereal Time
20:39:09
Azimuth
Unknown
Elevation
Unknown
Doppler factor
Unknown
Orbital elements
Apogee altitude
953.25 km
Perigee altitude
818.21 km
Semi-major axis
7,263.867 km
Eccentricity
0.0093
Inclination
99.1718°
RAAN
50.7072°
Arg. of periapsis
23.8345°
True anomaly
3.92735°
Mean anomaly
3.8549°
Eccentric anomaly
3.89104°
Mean motion
3.50583 °/min
Orbital period
102.69 mins
BSTAR
0.00043949
Loading maneuver chart data...
Computing Atmospheric mass density...

Documentation

Showing up to 5 results
|